GFSFLT1_850_rhum_000.txt.gz
RH
49 50 48 48 44 51 76 80 77 81 80 95 78 60 61 64 56 42 38 38 40 42 40 35 37 37 40 46 47 46 43 40
53 56 55 55 69 72 65 64 77 82 80 66 64 66 64 49 40 40 41 36 36 35 37 39 43 46 50 48 42 37 33 29
68 75 80 80 80 68 58 60 62 61 63 62 55 39 35 37 37 40 38 40 40 39 41 46 52 45 40 38 33 30 27 22
65 65 63 55 51 46 42 41 40 39 37 39 43 43 42 42 44 42 43 44 42 48 52 51 52 57 54 48 35 30 33 32
49 47 40 36 36 37 39 39 43 43 44 46 49 52 51 50 48 47 47 50 54 56 57 54 50 56 46 40 40 38 45 36
41 39 41 40 44 45 46 48 48 49 51 52 54 55 54 53 50 50 56 58 54 46 36 48 49 53 48 47 50 52 43 49
42 45 44 45 46 48 48 50 52 52 53 55 56 57 57 54 55 56 59 53 53 49 48 53 56 67 61 49 42 39 43 44
48 49 48 48 48 49 50 52 54 56 57 58 60 57 51 52 59 61 65 67 62 58 58 71 79 63 62 63 61 42 40 38
57 51 47 50 51 53 56 57 57 57 61 61 55 47 40 41 50 51 50 48 57 60 63 75 66 65 86 65 63 41 46 45
55 54 53 53 53 53 50 45 46 51 49 45 33 26 23 21 18 16 14 12 21 65 83 82 93 87 79 89 58 46 51 48
55 55 54 53 52 47 44 41 42 43 40 37 33 25 21 18 14 11 5 4 57 86 83 86 95 89 80 54 50 43 48 52
55 55 55 52 48 45 41 40 43 42 37 30 25 25 21 17 12 9 10 40 71 75 70 86 80 70 50 47 39 47 52 54
56 55 52 46 42 38 40 42 41 35 31 28 32 33 29 21 18 17 22 51 74 76 76 87 80 45 42 42 43 51 51 57
56 53 46 40 38 40 42 42 35 32 30 35 35 37 34 31 28 26 33 69 77 91 96 68 40 40 44 43 46 50 59 61
53 44 40 37 40 56 41 35 32 32 34 38 40 42 40 35 33 39 46 75 93 94 64 43 41 50 43 46 51 56 60 64
45 41 38 44 50 36 34 33 33 34 37 40 43 46 44 37 49 49 52 73 84 86 54 42 53 58 46 51 56 60 64 60
43 43 40 36 33 32 32 32 34 37 39 42 48 50 41 48 55 59 69 95 86 78 52 59 68 51 52 58 58 60 57 52
41 38 36 36 32 31 32 34 36 39 41 47 52 47 52 53 64 70 81 91 80 79 72 78 70 55 60 59 59 57 43 40
37 36 37 34 30 31 33 36 39 41 46 52 46 57 67 57 60 73 83 82 78 76 74 55 59 73 68 61 58 43 36 48

GFSFLT1_850_rhum_003.txt.gz
RH
44 44 45 44 44 55 72 81 72 65 75 75 78 62 55 55 44 33 32 36 36 38 38 38 39 42 45 47 46 41 36 33
54 57 56 53 57 62 61 65 75 65 62 63 64 59 57 46 31 31 34 36 38 42 42 42 45 47 49 50 50 48 44 40
68 69 71 70 68 73 68 62 55 54 57 56 56 44 31 37 38 38 40 41 44 45 46 50 54 57 56 52 50 43 39 34
90 79 63 54 51 52 48 45 54 50 41 41 43 45 43 43 45 46 45 46 48 53 57 57 46 38 42 44 46 44 58 48
66 53 47 42 37 38 40 41 42 44 45 46 48 50 50 49 48 47 48 53 55 54 52 45 34 47 49 54 55 48 43 62
46 41 36 36 40 43 45 46 47 48 49 50 51 52 53 54 52 53 54 56 56 50 46 36 36 55 64 62 50 43 39 34
40 39 40 44 46 47 47 49 50 52 52 53 54 54 54 53 49 45 42 41 36 30 27 36 49 57 67 62 55 78 60 53
46 45 46 46 46 46 47 50 52 56 61 59 57 56 45 27 20 16 12 10 9 13 36 55 65 76 69 73 74 64 51 44
50 48 46 45 47 50 53 57 58 54 51 44 40 29 23 17 12 8 6 5 3 2 16 67 86 80 77 87 75 70 47 51
53 52 51 54 56 58 55 47 44 46 44 38 30 25 23 21 17 12 8 7 8 17 53 87 91 82 84 83 60 56 50 48
57 58 59 60 57 50 49 48 44 44 42 32 26 24 25 22 22 14 11 11 15 59 89 91 97 79 62 51 52 46 44 50
60 60 60 55 49 48 48 46 44 43 34 29 29 32 32 34 24 15 16 22 35 78 86 87 77 78 68 49 42 43 46 50
60 60 56 49 45 41 39 45 44 36 31 31 34 38 39 37 26 21 29 36 54 86 84 82 80 86 44 46 44 46 50 53
58 56 51 44 36 45 51 46 38 31 31 34 37 40 44 42 29 32 42 45 52 80 88 82 51 41 45 50 46 51 54 62
56 54 50 40 37 47 38 35 32 31 33 36 39 44 48 44 33 38 47 52 61 74 88 69 59 46 60 58 49 54 57 62
56 54 44 35 48 39 32 32 30 32 35 38 42 48 50 42 38 41 54 59 79 86 89 52 57 62 66 61 54 58 58 55
56 48 41 36 38 34 31 31 31 34 37 39 43 51 51 40 46 47 57 71 91 82 76 63 62 61 92 61 66 60 57 54
54 48 42 38 37 33 30 31 33 35 38 39 44 52 45 52 54 53 56 73 85 81 77 76 81 66 68 72 61 61 50 38
54 47 41 37 37 30 29 31 33 37 38 40 51 45 54 64 59 58 56 70 69 76 77 78 67 66 75 62 65 50 38 40

GFSFLT1_850_rhum_006.txt.gz
RH
64 56 59 67 82 87 65 63 60 64 64 60 69 67 55 55 46 38 39 42 41 40 44 43 45 58 57 60 59 60 62 66
68 64 75 79 88 82 61 62 62 74 57 63 65 65 57 54 36 37 40 43 42 44 56 60 62 66 73 70 64 60 60 66
85 86 86 87 84 83 84 73 82 70 67 64 61 63 50 35 40 41 45 46 48 54 57 65 69 67 68 79 72 58 47 63
83 89 91 91 90 90 84 77 67 65 54 46 41 41 44 53 57 56 53 48 50 56 65 66 68 69 66 71 69 72 60 57
79 84 89 87 89 85 72 64 55 41 43 48 48 55 55 53 56 62 65 64 51 52 65 58 59 62 64 71 71 71 70 52
68 68 69 65 57 56 50 41 42 43 46 48 52 55 60 62 64 62 63 60 62 60 60 65 63 60 69 84 86 74 67 66
49 51 50 50 58 41 43 44 47 48 49 52 53 47 45 43 38 35 30 27 26 31 38 62 73 74 89 89 82 82 77 68
42 45 45 53 60 51 52 52 52 54 57 48 39 37 34 30 24 28 24 28 30 34 31 54 73 86 96 91 90 80 77 68
46 45 49 57 61 59 54 57 58 52 44 40 37 29 26 31 28 24 40 41 46 56 60 77 93 98 98 95 96 81 74 65
48 54 57 62 62 62 62 55 46 43 42 49 29 27 29 28 35 39 40 45 53 67 82 94 100 99 97 92 75 72 68 62
54 59 62 62 67 63 53 47 44 60 59 33 30 33 36 33 28 22 24 32 52 72 83 97 98 97 86 76 67 61 61 56
58 62 66 66 64 52 49 46 53 48 36 30 33 35 35 33 41 32 25 22 65 71 80 88 90 79 74 83 65 60 59 58
58 63 70 70 56 49 43 46 44 38 33 32 34 34 36 43 55 56 52 59 67 76 85 86 82 79 83 67 60 60 58 60
59 63 65 58 49 41 45 47 42 34 31 34 34 37 43 61 62 64 64 72 83 88 86 87 84 80 68 60 64 66 67 68
56 56 53 48 42 47 48 43 32 31 32 34 42 40 51 64 67 68 71 78 85 86 86 88 89 74 64 68 71 73 73 75
54 50 47 43 42 48 47 37 31 32 32 39 48 46 55 69 71 67 68 82 88 88 86 82 79 74 68 65 71 85 82 76
53 51 46 43 41 47 42 32 31 32 34 39 46 48 54 69 66 68 73 77 81 82 86 91 88 86 76 74 64 72 73 72
52 52 48 41 40 38 37 34 31 32 34 38 36 39 55 62 64 66 67 72 79 77 79 91 93 97 65 65 67 63 75 71
52 53 50 43 38 40 38 34 31 31 36 38 39 55 58 57 60 66 70 73 74 71 71 82 90 80 67 67 63 71 72 72

GFSFLT1_850_rhum_009.txt.gz
RH
44 42 41 53 66 74 81 83 64 57 77 67 64 66 62 60 58 50 42 58 44 58 61 70 63 59 60 66 75 68 65 57
52 47 48 55 69 75 84 81 83 77 67 61 61 60 62 61 60 41 46 50 62 62 63 64 65 64 68 70 70 68 62 48
54 59 58 60 72 77 78 80 79 63 59 54 57 58 58 53 56 49 58 66 64 62 69 70 68 68 65 66 66 68 57 46
62 67 68 70 75 76 75 71 65 57 60 58 53 42 49 54 54 54 64 72 71 69 66 66 68 66 57 55 58 69 61 54
62 68 71 74 75 73 64 63 62 64 52 52 56 51 51 61 58 60 62 59 57 52 47 51 57 62 60 56 55 71 68 57
59 64 72 66 70 68 62 61 55 56 59 60 56 57 56 55 51 42 35 32 30 29 30 35 42 58 63 67 72 74 69 67
57 58 60 67 66 66 63 54 56 61 63 59 57 48 44 39 37 31 30 29 31 34 41 48 51 54 69 70 78 77 90 86
44 49 46 51 58 62 58 55 60 65 66 56 42 43 40 34 36 35 38 36 37 41 54 62 62 63 73 81 82 83 94 90
38 40 39 48 57 60 55 57 61 62 49 43 51 44 39 39 43 44 39 40 42 50 59 72 71 76 82 90 93 90 95 86
33 36 39 47 57 59 58 57 54 46 45 64 64 42 27 43 51 47 42 44 45 48 63 70 79 84 93 92 86 79 65 67
36 37 43 50 58 60 61 53 44 48 58 51 48 36 49 53 51 48 46 52 54 57 60 64 72 78 87 76 69 73 79 64
38 42 49 54 58 61 57 46 46 53 52 48 36 50 54 54 52 52 52 57 56 57 60 66 65 65 67 70 73 76 64 62
38 47 52 54 60 60 50 46 50 49 46 46 51 54 53 51 52 54 57 60 61 64 69 69 64 64 64 62 63 59 60 69
39 48 53 56 60 54 48 49 47 45 43 44 45 48 53 53 55 59 60 59 63 70 69 67 64 78 76 73 61 66 82 82
40 47 53 59 57 51 47 49 48 42 35 35 37 48 52 54 59 62 60 61 66 72 67 67 69 71 58 59 62 69 74 80
42 48 52 57 53 48 47 50 48 39 35 35 39 49 56 56 61 63 62 68 68 67 65 75 87 81 67 62 74 82 74 73
44 48 49 50 48 45 47 50 45 42 40 42 45 50 51 52 60 63 63 60 60 61 62 67 88 86 87 69 60 63 68 64
43 45 46 44 44 44 47 44 42 42 41 43 47 50 49 54 57 52 54 58 61 61 59 60 80 83 85 64 62 65 76 75
41 44 46 44 44 42 45 41 40 41 41 44 48 48 48 49 49 49 50 57 58 58 59 64 72 84 79 66 68 64 85 80